Location: Gazon
(48.1318°N, 1.2708°W)
Time: 23:19:58
(UTC+00:00)

Meteor 1-24 Rocket - Pass Details

Date: 18 September 2020
Orbit: 790 x 927 km, 81.2° (Epoch: 25 October)

Event Time Altitude Azimuth Distance (km) Brightness Sun altitude
Rises 20:48:05 0° 347° (NNW) 3,346 7.5 -25.5°
Reaches altitude 10° 20:50:27 10° 347° (NNW) 2,425 6.7 -25.8°
Maximum altitude 20:55:57 85° 260° (W) 850 3.6 -26.6°
Enters shadow 20:56:34 72° 185° (S) 889 3.6 -26.6°
